Year,Month,Day,Hour,Minute,Value (Times are PST for temperature in C)
2009,04,15,00,00,5.90
2009,04,15,00,01,6.00
2009,04,15,00,02,6.00
2009,04,15,00,03,5.90
2009,04,15,00,04,5.90
2009,04,15,00,05,5.90
2009,04,15,00,06,5.90
2009,04,15,00,07,5.90
2009,04,15,00,08,5.90
2009,04,15,00,09,5.90
2009,04,15,00,10,5.90
2009,04,15,00,11,5.90
2009,04,15,00,12,5.90
2009,04,15,00,13,5.90
2009,04,15,00,14,5.90
2009,04,15,00,15,5.90
2009,04,15,00,16,5.80
2009,04,15,00,17,5.80
2009,04,15,00,18,5.80
2009,04,15,00,19,5.80
2009,04,15,00,20,5.80
2009,04,15,00,21,5.80
2009,04,15,00,22,5.80
2009,04,15,00,23,5.80
2009,04,15,00,24,5.80
2009,04,15,00,25,5.80
2009,04,15,00,26,5.80
2009,04,15,00,27,5.80
2009,04,15,00,28,5.80
2009,04,15,00,29,5.80
2009,04,15,00,30,5.80
2009,04,15,00,31,5.80
2009,04,15,00,32,5.70
2009,04,15,00,33,5.70
2009,04,15,00,34,5.70
2009,04,15,00,35,5.70
2009,04,15,00,36,5.70
2009,04,15,00,37,5.70
2009,04,15,00,38,5.70
2009,04,15,00,39,5.70
2009,04,15,00,40,5.70
2009,04,15,00,41,5.70
2009,04,15,00,42,5.70
2009,04,15,00,43,5.70
2009,04,15,00,44,5.70
2009,04,15,00,45,5.70
2009,04,15,00,46,5.70
2009,04,15,00,47,5.70
2009,04,15,00,48,5.70
2009,04,15,00,49,5.70
2009,04,15,00,50,5.70
2009,04,15,00,51,5.70
2009,04,15,00,52,5.70
2009,04,15,00,53,5.70
2009,04,15,00,54,5.70
2009,04,15,00,55,5.70
2009,04,15,00,56,5.70
2009,04,15,00,57,5.70
2009,04,15,00,58,5.60
2009,04,15,00,59,5.60
2009,04,15,01,00,5.60
2009,04,15,01,01,5.60
2009,04,15,01,02,5.60
2009,04,15,01,03,5.60
2009,04,15,01,04,5.60
2009,04,15,01,05,5.50
2009,04,15,01,06,5.50
2009,04,15,01,07,5.50
2009,04,15,01,08,5.50
2009,04,15,01,09,5.50
2009,04,15,01,10,5.50
2009,04,15,01,11,5.50
2009,04,15,01,12,5.50
2009,04,15,01,13,5.50
2009,04,15,01,14,5.50
2009,04,15,01,15,5.50
2009,04,15,01,16,5.50
2009,04,15,01,17,5.50
2009,04,15,01,18,5.50
2009,04,15,01,19,5.50
2009,04,15,01,20,5.50
2009,04,15,01,21,5.50
2009,04,15,01,22,5.50
2009,04,15,01,23,5.40
2009,04,15,01,24,5.40
2009,04,15,01,25,5.50
2009,04,15,01,26,5.40
2009,04,15,01,27,5.40
2009,04,15,01,28,5.40
2009,04,15,01,29,5.40
2009,04,15,01,30,5.40
2009,04,15,01,31,5.40
2009,04,15,01,32,5.40
2009,04,15,01,33,5.40
2009,04,15,01,34,5.40
2009,04,15,01,35,5.40
2009,04,15,01,36,5.40
2009,04,15,01,37,5.40
2009,04,15,01,38,5.40
2009,04,15,01,39,5.40
2009,04,15,01,40,5.40
2009,04,15,01,41,5.40
2009,04,15,01,42,5.40
2009,04,15,01,43,5.40
2009,04,15,01,44,5.40
2009,04,15,01,45,5.40
2009,04,15,01,46,5.40
2009,04,15,01,47,5.40
2009,04,15,01,48,5.40
2009,04,15,01,49,5.40
2009,04,15,01,50,5.30
2009,04,15,01,51,5.30
2009,04,15,01,52,5.30
2009,04,15,01,53,5.30
2009,04,15,01,54,5.30
2009,04,15,01,55,5.30
2009,04,15,01,56,5.30
2009,04,15,01,57,5.30
2009,04,15,01,58,5.30
2009,04,15,01,59,5.30
2009,04,15,02,00,5.30
2009,04,15,02,01,5.30
2009,04,15,02,02,5.30
2009,04,15,02,03,5.30
2009,04,15,02,04,5.30
2009,04,15,02,05,5.30
2009,04,15,02,06,5.30
2009,04,15,02,07,5.30
2009,04,15,02,08,5.30
2009,04,15,02,09,5.30
2009,04,15,02,10,5.30
2009,04,15,02,11,5.30
2009,04,15,02,12,5.30
2009,04,15,02,13,5.30
2009,04,15,02,14,5.30
2009,04,15,02,15,5.30
2009,04,15,02,16,5.30
2009,04,15,02,17,5.30
2009,04,15,02,18,5.30
2009,04,15,02,19,5.30
2009,04,15,02,20,5.30
2009,04,15,02,21,5.30
2009,04,15,02,22,5.30
2009,04,15,02,23,5.30
2009,04,15,02,24,5.30
2009,04,15,02,25,5.30
2009,04,15,02,26,5.30
2009,04,15,02,27,5.30
2009,04,15,02,28,5.30
2009,04,15,02,29,5.20
2009,04,15,02,30,5.20
2009,04,15,02,31,5.20
2009,04,15,02,32,5.20
2009,04,15,02,33,5.20
2009,04,15,02,34,5.20
2009,04,15,02,35,5.20
2009,04,15,02,36,5.20
2009,04,15,02,37,5.20
2009,04,15,02,38,5.20
2009,04,15,02,39,5.20
2009,04,15,02,40,5.20
2009,04,15,02,41,5.20
2009,04,15,02,42,5.20
2009,04,15,02,43,5.10
2009,04,15,02,44,5.10
2009,04,15,02,45,5.10
2009,04,15,02,46,5.10
2009,04,15,02,47,5.10
2009,04,15,02,48,5.10
2009,04,15,02,49,5.10
2009,04,15,02,50,5.10
2009,04,15,02,51,5.10
2009,04,15,02,52,5.10
2009,04,15,02,53,5.00
2009,04,15,02,54,4.90
2009,04,15,02,55,4.90
2009,04,15,02,56,4.90
2009,04,15,02,57,4.90
2009,04,15,02,58,4.90
2009,04,15,02,59,4.90
2009,04,15,03,00,4.90
2009,04,15,03,01,4.90
2009,04,15,03,02,4.80
2009,04,15,03,03,4.80
2009,04,15,03,04,4.80
2009,04,15,03,05,4.70
2009,04,15,03,06,4.70
2009,04,15,03,07,4.70
2009,04,15,03,08,4.70
2009,04,15,03,09,4.60
2009,04,15,03,10,4.60
2009,04,15,03,11,4.60
2009,04,15,03,12,4.70
2009,04,15,03,13,4.70
2009,04,15,03,14,4.70
2009,04,15,03,15,4.70
2009,04,15,03,16,4.70
2009,04,15,03,17,4.70
2009,04,15,03,18,4.80
2009,04,15,03,19,4.80
2009,04,15,03,20,4.90
2009,04,15,03,21,4.90
2009,04,15,03,22,4.90
2009,04,15,03,23,4.90
2009,04,15,03,24,4.90
2009,04,15,03,25,5.00
2009,04,15,03,26,4.90
2009,04,15,03,27,4.90
2009,04,15,03,28,4.90
2009,04,15,03,29,4.90
2009,04,15,03,30,4.90
2009,04,15,03,31,4.90
2009,04,15,03,32,5.10
2009,04,15,03,33,5.10
2009,04,15,03,34,5.10
2009,04,15,03,35,5.10
2009,04,15,03,36,5.10
2009,04,15,03,37,5.10
2009,04,15,03,38,5.10
2009,04,15,03,39,5.10
2009,04,15,03,40,5.10
2009,04,15,03,41,5.10
2009,04,15,03,42,5.10
2009,04,15,03,43,5.10
2009,04,15,03,44,5.10
2009,04,15,03,45,5.10
2009,04,15,03,46,5.10
2009,04,15,03,47,5.10
2009,04,15,03,48,5.00
2009,04,15,03,49,4.90
2009,04,15,03,50,4.90
2009,04,15,03,51,4.90
2009,04,15,03,52,4.90
2009,04,15,03,53,4.90
2009,04,15,03,54,4.90
2009,04,15,03,55,4.90
2009,04,15,03,56,4.90
2009,04,15,03,57,5.00
2009,04,15,03,58,5.10
2009,04,15,03,59,5.10
2009,04,15,04,00,5.10
2009,04,15,04,01,5.10
2009,04,15,04,02,5.10
2009,04,15,04,03,5.10
2009,04,15,04,04,5.10
2009,04,15,04,05,5.10
2009,04,15,04,06,5.10
2009,04,15,04,07,5.10
2009,04,15,04,08,5.10
2009,04,15,04,09,5.10
2009,04,15,04,10,5.10
2009,04,15,04,11,5.10
2009,04,15,04,12,5.10
2009,04,15,04,13,5.10
2009,04,15,04,14,5.10
2009,04,15,04,15,5.10
2009,04,15,04,16,5.10
2009,04,15,04,17,5.10
2009,04,15,04,18,5.10
2009,04,15,04,19,5.10
2009,04,15,04,20,5.10
2009,04,15,04,21,5.10
2009,04,15,04,22,5.10
2009,04,15,04,23,5.10
2009,04,15,04,24,5.10
2009,04,15,04,25,5.10
2009,04,15,04,26,5.10
2009,04,15,04,27,5.10
2009,04,15,04,28,5.10
2009,04,15,04,29,5.10
2009,04,15,04,30,5.10
2009,04,15,04,31,5.10
2009,04,15,04,32,5.10
2009,04,15,04,33,5.10
2009,04,15,04,34,5.10
2009,04,15,04,35,5.10
2009,04,15,04,36,5.10
2009,04,15,04,37,5.10
2009,04,15,04,38,5.10
2009,04,15,04,39,5.10
2009,04,15,04,40,5.10
2009,04,15,04,41,5.10
2009,04,15,04,42,5.10
2009,04,15,04,43,5.10
2009,04,15,04,44,5.10
2009,04,15,04,45,5.10
2009,04,15,04,46,5.10
2009,04,15,04,47,5.10
2009,04,15,04,48,5.00
2009,04,15,04,49,4.90
2009,04,15,04,50,4.90
2009,04,15,04,51,4.90
2009,04,15,04,52,4.90
2009,04,15,04,53,4.90
2009,04,15,04,54,4.90
2009,04,15,04,55,4.80
2009,04,15,04,56,4.80
2009,04,15,04,57,4.80
2009,04,15,04,58,4.80
2009,04,15,04,59,4.80
2009,04,15,05,00,4.80
2009,04,15,05,01,4.80
2009,04,15,05,02,4.80
2009,04,15,05,03,4.70
2009,04,15,05,04,4.70
2009,04,15,05,05,4.70
2009,04,15,05,06,4.70
2009,04,15,05,07,4.60
2009,04,15,05,08,4.60
2009,04,15,05,09,4.60
2009,04,15,05,10,4.60
2009,04,15,05,11,4.60
2009,04,15,05,12,4.50
2009,04,15,05,13,4.50
2009,04,15,05,14,4.40
2009,04,15,05,15,4.40
2009,04,15,05,16,4.30
2009,04,15,05,17,4.30
2009,04,15,05,18,4.20
2009,04,15,05,19,4.20
2009,04,15,05,20,4.20
2009,04,15,05,21,4.20
2009,04,15,05,22,4.10
2009,04,15,05,23,4.10
2009,04,15,05,24,4.00
2009,04,15,05,25,4.00
2009,04,15,05,26,4.00
2009,04,15,05,27,3.90
2009,04,15,05,28,3.90
2009,04,15,05,29,3.80
2009,04,15,05,30,3.80
2009,04,15,05,31,3.80
2009,04,15,05,32,3.70
2009,04,15,05,33,3.70
2009,04,15,05,34,3.60
2009,04,15,05,35,3.60
2009,04,15,05,36,3.60
2009,04,15,05,37,3.50
2009,04,15,05,38,3.50
2009,04,15,05,39,3.50
2009,04,15,05,40,3.50
2009,04,15,05,41,3.40
2009,04,15,05,42,3.40
2009,04,15,05,43,3.40
2009,04,15,05,44,3.40
2009,04,15,05,45,3.40
2009,04,15,05,46,3.30
2009,04,15,05,47,3.30
2009,04,15,05,48,3.30
2009,04,15,05,49,3.30
2009,04,15,05,50,3.30
2009,04,15,05,51,3.30
2009,04,15,05,52,3.30
2009,04,15,05,53,3.30
2009,04,15,05,54,3.30
2009,04,15,05,55,3.30
2009,04,15,05,56,3.30
2009,04,15,05,57,3.30
2009,04,15,05,58,3.30
2009,04,15,05,59,3.30
2009,04,15,06,00,3.20
2009,04,15,06,01,3.20
2009,04,15,06,02,3.20
2009,04,15,06,03,3.10
2009,04,15,06,04,3.10
2009,04,15,06,05,3.10
2009,04,15,06,06,3.10
2009,04,15,06,07,3.10
2009,04,15,06,08,3.10
2009,04,15,06,09,3.10
2009,04,15,06,10,2.90
2009,04,15,06,11,2.90
2009,04,15,06,12,2.90
2009,04,15,06,13,2.90
2009,04,15,06,14,2.90
2009,04,15,06,15,2.90
2009,04,15,06,16,2.90
2009,04,15,06,17,2.90
2009,04,15,06,18,2.90
2009,04,15,06,19,2.90
2009,04,15,06,20,2.90
2009,04,15,06,21,2.90
2009,04,15,06,22,2.80
2009,04,15,06,23,2.80
2009,04,15,06,24,2.80
2009,04,15,06,25,2.80
2009,04,15,06,26,2.70
2009,04,15,06,27,2.70
2009,04,15,06,28,2.70
2009,04,15,06,29,2.70
2009,04,15,06,30,2.70
2009,04,15,06,31,2.70
2009,04,15,06,32,2.70
2009,04,15,06,33,2.60
2009,04,15,06,34,2.60
2009,04,15,06,35,2.60
2009,04,15,06,36,2.60
2009,04,15,06,37,2.60
2009,04,15,06,38,2.60
2009,04,15,06,39,2.60
2009,04,15,06,40,2.60
2009,04,15,06,41,2.60
2009,04,15,06,42,2.60
2009,04,15,06,43,2.60
2009,04,15,06,44,2.60
2009,04,15,06,45,2.60
2009,04,15,06,46,2.70
2009,04,15,06,47,2.70
2009,04,15,06,48,2.70
2009,04,15,06,49,2.70
2009,04,15,06,50,2.70
2009,04,15,06,51,2.70
2009,04,15,06,52,2.80
2009,04,15,06,53,2.80
2009,04,15,06,54,2.80
2009,04,15,06,55,2.80
2009,04,15,06,56,2.90
2009,04,15,06,57,2.90
2009,04,15,06,58,2.80
2009,04,15,06,59,2.80
2009,04,15,07,00,2.80
2009,04,15,07,01,2.80
2009,04,15,07,02,2.70
2009,04,15,07,03,2.70
2009,04,15,07,04,2.70
2009,04,15,07,05,2.70
2009,04,15,07,06,2.70
2009,04,15,07,07,2.70
2009,04,15,07,08,2.70
2009,04,15,07,09,2.70
2009,04,15,07,10,2.70
2009,04,15,07,11,2.70
2009,04,15,07,12,2.70
2009,04,15,07,13,2.60
2009,04,15,07,14,2.60
2009,04,15,07,15,2.60
2009,04,15,07,16,2.60
2009,04,15,07,17,2.60
2009,04,15,07,18,2.60
2009,04,15,07,19,2.60
2009,04,15,07,20,2.60
2009,04,15,07,21,2.70
2009,04,15,07,22,2.70
2009,04,15,07,23,2.70
2009,04,15,07,24,2.70
2009,04,15,07,25,2.70
2009,04,15,07,26,2.70
2009,04,15,07,27,2.70
2009,04,15,07,28,2.70
2009,04,15,07,29,2.70
2009,04,15,07,30,2.70
2009,04,15,07,31,2.80
2009,04,15,07,32,2.80
2009,04,15,07,33,2.90
2009,04,15,07,34,2.90
2009,04,15,07,35,2.90
2009,04,15,07,36,3.10
2009,04,15,07,37,3.10
2009,04,15,07,38,3.20
2009,04,15,07,39,3.30
2009,04,15,07,40,3.50
2009,04,15,07,41,3.60
2009,04,15,07,42,3.80
2009,04,15,07,43,3.80
2009,04,15,07,44,3.90
2009,04,15,07,45,4.00
2009,04,15,07,46,4.10
2009,04,15,07,47,4.20
2009,04,15,07,48,4.40
2009,04,15,07,49,4.50
2009,04,15,07,50,4.60
2009,04,15,07,51,4.70
2009,04,15,07,52,4.80
2009,04,15,07,53,4.90
2009,04,15,07,54,5.10
2009,04,15,07,55,5.10
2009,04,15,07,56,5.20
2009,04,15,07,57,5.30
2009,04,15,07,58,5.40
2009,04,15,07,59,5.50
2009,04,15,08,00,5.60
2009,04,15,08,01,5.70
2009,04,15,08,02,5.70
2009,04,15,08,03,5.80
2009,04,15,08,04,5.90
2009,04,15,08,05,5.90
2009,04,15,08,06,6.00
2009,04,15,08,07,6.10
2009,04,15,08,08,6.10
2009,04,15,08,09,6.20
2009,04,15,08,10,6.20
2009,04,15,08,11,6.30
2009,04,15,08,12,6.30
2009,04,15,08,13,6.40
2009,04,15,08,14,6.40
2009,04,15,08,15,6.40
2009,04,15,08,16,6.50
2009,04,15,08,17,6.60
2009,04,15,08,18,6.60
2009,04,15,08,19,6.60
2009,04,15,08,20,6.70
2009,04,15,08,21,6.70
2009,04,15,08,22,6.70
2009,04,15,08,23,6.80
2009,04,15,08,24,6.80
2009,04,15,08,25,6.80
2009,04,15,08,26,6.90
2009,04,15,08,27,7.00
2009,04,15,08,28,7.00
2009,04,15,08,29,7.10
2009,04,15,08,30,7.20
2009,04,15,08,31,7.30
2009,04,15,08,32,7.30
2009,04,15,08,33,7.30
2009,04,15,08,34,7.40
2009,04,15,08,35,7.40
2009,04,15,08,36,7.50
2009,04,15,08,37,7.50
2009,04,15,08,38,7.50
2009,04,15,08,39,7.50
2009,04,15,08,40,7.60
2009,04,15,08,41,7.60
2009,04,15,08,42,7.60
2009,04,15,08,43,7.60
2009,04,15,08,44,7.70
2009,04,15,08,45,7.70
2009,04,15,08,46,7.70
2009,04,15,08,47,7.80
2009,04,15,08,48,7.80
2009,04,15,08,49,7.90
2009,04,15,08,50,8.00
2009,04,15,08,51,8.00
2009,04,15,08,52,8.10
2009,04,15,08,53,8.10
2009,04,15,08,54,8.20
2009,04,15,08,55,8.20
2009,04,15,08,56,8.20
2009,04,15,08,57,8.30
2009,04,15,08,58,8.40
2009,04,15,08,59,8.50
2009,04,15,09,00,8.60
2009,04,15,09,01,8.60
2009,04,15,09,02,8.60
2009,04,15,09,03,8.60
2009,04,15,09,04,8.70
2009,04,15,09,05,8.70
2009,04,15,09,06,8.90
2009,04,15,09,07,9.00
2009,04,15,09,08,9.00
2009,04,15,09,09,9.00
2009,04,15,09,10,9.10
2009,04,15,09,11,9.10
2009,04,15,09,12,9.20
2009,04,15,09,13,9.20
2009,04,15,09,14,9.30
2009,04,15,09,15,9.30
2009,04,15,09,16,9.30
2009,04,15,09,17,9.30
2009,04,15,09,18,9.20
2009,04,15,09,19,9.20
2009,04,15,09,20,9.20
2009,04,15,09,21,9.20
2009,04,15,09,22,9.20
2009,04,15,09,23,9.20
2009,04,15,09,24,9.30
2009,04,15,09,25,9.40
2009,04,15,09,26,9.50
2009,04,15,09,27,9.50
2009,04,15,09,28,9.60
2009,04,15,09,29,9.60
2009,04,15,09,30,9.70
2009,04,15,09,31,9.60
2009,04,15,09,32,9.60
2009,04,15,09,33,9.40
2009,04,15,09,34,9.40
2009,04,15,09,35,9.40
2009,04,15,09,36,9.30
2009,04,15,09,37,9.30
2009,04,15,09,38,9.20
2009,04,15,09,39,9.10
2009,04,15,09,40,9.10
2009,04,15,09,41,9.10
2009,04,15,09,42,9.10
2009,04,15,09,43,9.20
2009,04,15,09,44,9.20
2009,04,15,09,45,9.30
2009,04,15,09,46,9.30
2009,04,15,09,47,9.30
2009,04,15,09,48,9.30
2009,04,15,09,49,9.20
2009,04,15,09,50,9.20
2009,04,15,09,51,9.20
2009,04,15,09,52,9.20
2009,04,15,09,53,9.20
2009,04,15,09,54,9.20
2009,04,15,09,55,9.20
2009,04,15,09,56,9.30
2009,04,15,09,57,9.40
2009,04,15,09,58,9.40
2009,04,15,09,59,9.50
2009,04,15,10,00,9.60
2009,04,15,10,01,9.60
2009,04,15,10,02,9.60
2009,04,15,10,03,9.60
2009,04,15,10,04,9.60
2009,04,15,10,05,9.70
2009,04,15,10,06,9.70
2009,04,15,10,07,9.70
2009,04,15,10,08,9.80
2009,04,15,10,09,9.90
2009,04,15,10,10,9.90
2009,04,15,10,11,9.90
2009,04,15,10,12,9.90
2009,04,15,10,13,9.90
2009,04,15,10,14,10.00
2009,04,15,10,15,10.10
2009,04,15,10,16,10.10
2009,04,15,10,17,10.10
2009,04,15,10,18,10.00
2009,04,15,10,19,9.90
2009,04,15,10,20,9.90
2009,04,15,10,21,9.90
2009,04,15,10,22,10.10
2009,04,15,10,23,10.00
2009,04,15,10,24,9.90
2009,04,15,10,25,9.90
2009,04,15,10,26,9.90
2009,04,15,10,27,9.90
2009,04,15,10,28,9.90
2009,04,15,10,29,9.90
2009,04,15,10,30,10.00
2009,04,15,10,31,10.10
2009,04,15,10,32,10.20
2009,04,15,10,33,10.30
2009,04,15,10,34,10.40
2009,04,15,10,35,10.40
2009,04,15,10,36,10.40
2009,04,15,10,37,10.20
2009,04,15,10,38,10.10
2009,04,15,10,39,10.00
2009,04,15,10,40,10.00
2009,04,15,10,41,10.10
2009,04,15,10,42,10.10
2009,04,15,10,43,10.10
2009,04,15,10,44,10.10
2009,04,15,10,45,10.20
2009,04,15,10,46,10.20
2009,04,15,10,47,10.10
2009,04,15,10,48,10.10
2009,04,15,10,49,9.90
2009,04,15,10,50,9.90
2009,04,15,10,51,9.90
2009,04,15,10,52,9.90
2009,04,15,10,53,9.90
2009,04,15,10,54,10.10
2009,04,15,10,55,10.10
2009,04,15,10,56,10.10
2009,04,15,10,57,10.10
2009,04,15,10,58,10.10
2009,04,15,10,59,10.20
2009,04,15,11,00,10.40
2009,04,15,11,01,10.50
2009,04,15,11,02,10.60
2009,04,15,11,03,10.50
2009,04,15,11,04,10.40
2009,04,15,11,05,10.40
2009,04,15,11,06,10.40
2009,04,15,11,07,10.30
2009,04,15,11,08,10.20
2009,04,15,11,09,10.10
2009,04,15,11,10,10.10
2009,04,15,11,11,10.10
2009,04,15,11,12,10.10
2009,04,15,11,13,10.20
2009,04,15,11,14,10.10
2009,04,15,11,15,10.10
2009,04,15,11,16,10.20
2009,04,15,11,17,10.30
2009,04,15,11,18,10.30
2009,04,15,11,19,10.20
2009,04,15,11,20,10.40
2009,04,15,11,21,10.40
2009,04,15,11,22,10.50
2009,04,15,11,23,10.60
2009,04,15,11,24,10.60
2009,04,15,11,25,10.60
2009,04,15,11,26,10.60
2009,04,15,11,27,10.80
2009,04,15,11,28,10.80
2009,04,15,11,29,10.90
2009,04,15,11,30,10.80
2009,04,15,11,31,10.80
2009,04,15,11,32,10.70
2009,04,15,11,33,10.50
2009,04,15,11,34,10.30
2009,04,15,11,35,10.20
2009,04,15,11,36,10.10
2009,04,15,11,37,10.10
2009,04,15,11,38,10.10
2009,04,15,11,39,10.20
2009,04,15,11,40,10.20
2009,04,15,11,41,10.10
2009,04,15,11,42,9.90
2009,04,15,11,43,9.80
2009,04,15,11,44,9.80
2009,04,15,11,45,9.80
2009,04,15,11,46,9.90
2009,04,15,11,47,9.90
2009,04,15,11,48,9.90
2009,04,15,11,49,9.90
2009,04,15,11,50,9.80
2009,04,15,11,51,9.80
2009,04,15,11,52,9.90
2009,04,15,11,53,10.00
2009,04,15,11,54,10.20
2009,04,15,11,55,10.30
2009,04,15,11,56,10.40
2009,04,15,11,57,10.60
2009,04,15,11,58,10.60
2009,04,15,11,59,10.60
2009,04,15,12,00,10.80
2009,04,15,12,01,10.80
2009,04,15,12,02,10.70
2009,04,15,12,03,10.60
2009,04,15,12,04,10.60
2009,04,15,12,05,10.70
2009,04,15,12,06,10.70
2009,04,15,12,07,10.60
2009,04,15,12,08,10.40
2009,04,15,12,09,10.50
2009,04,15,12,10,10.40
2009,04,15,12,11,10.50
2009,04,15,12,12,10.60
2009,04,15,12,13,10.50
2009,04,15,12,14,10.40
2009,04,15,12,15,10.40
2009,04,15,12,16,10.40
2009,04,15,12,17,10.50
2009,04,15,12,18,10.60
2009,04,15,12,19,10.60
2009,04,15,12,20,10.70
2009,04,15,12,21,10.90
2009,04,15,12,22,11.10
2009,04,15,12,23,11.10
2009,04,15,12,24,11.10
2009,04,15,12,25,11.20
2009,04,15,12,26,11.10
2009,04,15,12,27,10.90
2009,04,15,12,28,10.90
2009,04,15,12,29,10.80
2009,04,15,12,30,10.80
2009,04,15,12,31,10.80
2009,04,15,12,32,10.80
2009,04,15,12,33,10.90
2009,04,15,12,34,11.00
2009,04,15,12,35,11.10
2009,04,15,12,36,11.20
2009,04,15,12,37,11.20
2009,04,15,12,38,11.20
2009,04,15,12,39,11.20
2009,04,15,12,40,11.40
2009,04,15,12,41,11.40
2009,04,15,12,42,11.40
2009,04,15,12,43,11.40
2009,04,15,12,44,11.30
2009,04,15,12,45,11.20
2009,04,15,12,46,11.20
2009,04,15,12,47,11.20
2009,04,15,12,48,11.30
2009,04,15,12,49,11.40
2009,04,15,12,50,11.60
2009,04,15,12,51,11.70
2009,04,15,12,52,11.90
2009,04,15,12,53,12.00
2009,04,15,12,54,12.00
2009,04,15,12,55,12.00
2009,04,15,12,56,12.00
2009,04,15,12,57,12.10
2009,04,15,12,58,12.10
2009,04,15,12,59,12.30
2009,04,15,13,00,12.40
2009,04,15,13,01,12.50
2009,04,15,13,02,12.60
2009,04,15,13,03,12.60
2009,04,15,13,04,12.50
2009,04,15,13,05,12.40
2009,04,15,13,06,12.50
2009,04,15,13,07,12.30
2009,04,15,13,08,12.20
2009,04,15,13,09,12.10
2009,04,15,13,10,12.10
2009,04,15,13,11,11.90
2009,04,15,13,12,11.90
2009,04,15,13,13,11.90
2009,04,15,13,14,12.00
2009,04,15,13,15,12.00
2009,04,15,13,16,12.00
2009,04,15,13,17,12.00
2009,04,15,13,18,12.00
2009,04,15,13,19,11.90
2009,04,15,13,20,12.00
2009,04,15,13,21,12.00
2009,04,15,13,22,12.10
2009,04,15,13,23,12.30
2009,04,15,13,24,12.30
2009,04,15,13,25,12.30
2009,04,15,13,26,12.30
2009,04,15,13,27,12.30
2009,04,15,13,28,12.30
2009,04,15,13,29,12.30
2009,04,15,13,30,12.30
2009,04,15,13,31,12.30
2009,04,15,13,32,12.40
2009,04,15,13,33,12.50
2009,04,15,13,34,12.50
2009,04,15,13,35,12.60
2009,04,15,13,36,12.50
2009,04,15,13,37,12.50
2009,04,15,13,38,12.50
2009,04,15,13,39,12.50
2009,04,15,13,40,12.40
2009,04,15,13,41,12.30
2009,04,15,13,42,12.30
2009,04,15,13,43,12.30
2009,04,15,13,44,12.30
2009,04,15,13,45,12.40
2009,04,15,13,46,12.40
2009,04,15,13,47,12.50
2009,04,15,13,48,12.60
2009,04,15,13,49,12.60
2009,04,15,13,50,12.60
2009,04,15,13,51,12.60
2009,04,15,13,52,12.70
2009,04,15,13,53,12.80
2009,04,15,13,54,12.80
2009,04,15,13,55,13.00
2009,04,15,13,56,13.00
2009,04,15,13,57,13.10
2009,04,15,13,58,13.00
2009,04,15,13,59,13.10
2009,04,15,14,00,12.90
2009,04,15,14,01,13.00
2009,04,15,14,02,13.10
2009,04,15,14,03,13.20
2009,04,15,14,04,13.10
2009,04,15,14,05,13.00
2009,04,15,14,06,12.90
2009,04,15,14,07,12.70
2009,04,15,14,08,12.70
2009,04,15,14,09,12.70
2009,04,15,14,10,12.70
2009,04,15,14,11,12.70
2009,04,15,14,12,12.70
2009,04,15,14,13,12.70
2009,04,15,14,14,12.70
2009,04,15,14,15,12.80
2009,04,15,14,16,13.00
2009,04,15,14,17,13.00
2009,04,15,14,18,13.00
2009,04,15,14,19,12.80
2009,04,15,14,20,12.90
2009,04,15,14,21,12.90
2009,04,15,14,22,12.80
2009,04,15,14,23,12.90
2009,04,15,14,24,13.00
2009,04,15,14,25,13.10
2009,04,15,14,26,13.20
2009,04,15,14,27,13.40
2009,04,15,14,28,13.50
2009,04,15,14,29,13.60
2009,04,15,14,30,13.70
2009,04,15,14,31,13.70
2009,04,15,14,32,13.80
2009,04,15,14,33,13.70
2009,04,15,14,34,13.70
2009,04,15,14,35,13.70
2009,04,15,14,36,13.70
2009,04,15,14,37,13.70
2009,04,15,14,38,13.60
2009,04,15,14,39,13.50
2009,04,15,14,40,13.50
2009,04,15,14,41,13.30
2009,04,15,14,42,13.40
2009,04,15,14,43,13.50
2009,04,15,14,44,13.60
2009,04,15,14,45,13.30
2009,04,15,14,46,13.20
2009,04,15,14,47,13.10
2009,04,15,14,48,13.00
2009,04,15,14,49,13.00
2009,04,15,14,50,13.10
2009,04,15,14,51,13.30
2009,04,15,14,52,13.30
2009,04,15,14,53,13.40
2009,04,15,14,54,13.40
2009,04,15,14,55,13.30
2009,04,15,14,56,13.20
2009,04,15,14,57,13.10
2009,04,15,14,58,13.10
2009,04,15,14,59,12.90
2009,04,15,15,00,12.90
2009,04,15,15,01,13.00
2009,04,15,15,02,13.10
2009,04,15,15,03,13.10
2009,04,15,15,04,13.10
2009,04,15,15,05,13.00
2009,04,15,15,06,13.10
2009,04,15,15,07,13.10
2009,04,15,15,08,13.10
2009,04,15,15,09,13.20
2009,04,15,15,10,13.30
2009,04,15,15,11,13.30
2009,04,15,15,12,13.30
2009,04,15,15,13,13.30
2009,04,15,15,14,13.30
2009,04,15,15,15,13.30
2009,04,15,15,16,13.30
2009,04,15,15,17,13.30
2009,04,15,15,18,13.40
2009,04,15,15,19,13.50
2009,04,15,15,20,13.50
2009,04,15,15,21,13.30
2009,04,15,15,22,13.30
2009,04,15,15,23,13.30
2009,04,15,15,24,13.20
2009,04,15,15,25,13.20
2009,04,15,15,26,13.30
2009,04,15,15,27,13.30
2009,04,15,15,28,13.40
2009,04,15,15,29,13.40
2009,04,15,15,30,13.40
2009,04,15,15,31,13.30
2009,04,15,15,32,13.30
2009,04,15,15,33,13.30
2009,04,15,15,34,13.30
2009,04,15,15,35,13.30
2009,04,15,15,36,13.40
2009,04,15,15,37,13.50
2009,04,15,15,38,13.50
2009,04,15,15,39,13.50
2009,04,15,15,40,13.40
2009,04,15,15,41,13.40
2009,04,15,15,42,13.40
2009,04,15,15,43,13.30
2009,04,15,15,44,13.40
2009,04,15,15,45,13.40
2009,04,15,15,46,13.40
2009,04,15,15,47,13.30
2009,04,15,15,48,13.30
2009,04,15,15,49,13.20
2009,04,15,15,50,13.20
2009,04,15,15,51,13.20
2009,04,15,15,52,13.30
2009,04,15,15,53,13.40
2009,04,15,15,54,13.40
2009,04,15,15,55,13.30
2009,04,15,15,56,13.30
2009,04,15,15,57,13.40
2009,04,15,15,58,13.40
2009,04,15,15,59,13.40
2009,04,15,16,00,13.40
2009,04,15,16,01,13.40
2009,04,15,16,02,13.40
2009,04,15,16,03,13.40
2009,04,15,16,04,13.50
2009,04,15,16,05,13.50
2009,04,15,16,06,13.60
2009,04,15,16,07,13.60
2009,04,15,16,08,13.60
2009,04,15,16,09,13.60
2009,04,15,16,10,13.50
2009,04,15,16,11,13.30
2009,04,15,16,12,13.20
2009,04,15,16,13,13.20
2009,04,15,16,14,13.20
2009,04,15,16,15,13.30
2009,04,15,16,16,13.30
2009,04,15,16,17,13.20
2009,04,15,16,18,13.10
2009,04,15,16,19,13.20
2009,04,15,16,20,13.20
2009,04,15,16,21,13.20
2009,04,15,16,22,13.20
2009,04,15,16,23,13.30
2009,04,15,16,24,13.30
2009,04,15,16,25,13.30
2009,04,15,16,26,13.40
2009,04,15,16,27,13.50
2009,04,15,16,28,13.50
2009,04,15,16,29,13.60
2009,04,15,16,30,13.70
2009,04,15,16,31,13.70
2009,04,15,16,32,13.70
2009,04,15,16,33,13.70
2009,04,15,16,34,13.60
2009,04,15,16,35,13.60
2009,04,15,16,36,13.60
2009,04,15,16,37,13.60
2009,04,15,16,38,13.50
2009,04,15,16,39,13.60
2009,04,15,16,40,13.60
2009,04,15,16,41,13.50
2009,04,15,16,42,13.40
2009,04,15,16,43,13.30
2009,04,15,16,44,13.30
2009,04,15,16,45,13.30
2009,04,15,16,46,13.30
2009,04,15,16,47,13.30
2009,04,15,16,48,13.40
2009,04,15,16,49,13.30
2009,04,15,16,50,13.40
2009,04,15,16,51,13.40
2009,04,15,16,52,13.30
2009,04,15,16,53,13.30
2009,04,15,16,54,13.30
2009,04,15,16,55,13.30
2009,04,15,16,56,13.30
2009,04,15,16,57,13.20
2009,04,15,16,58,13.20
2009,04,15,16,59,13.20
2009,04,15,17,00,13.20
2009,04,15,17,01,13.20
2009,04,15,17,02,13.10
2009,04,15,17,03,13.10
2009,04,15,17,04,13.00
2009,04,15,17,05,13.00
2009,04,15,17,06,12.90
2009,04,15,17,07,12.90
2009,04,15,17,08,13.00
2009,04,15,17,09,13.00
2009,04,15,17,10,13.00
2009,04,15,17,11,13.00
2009,04,15,17,12,12.90
2009,04,15,17,13,12.80
2009,04,15,17,14,12.80
2009,04,15,17,15,12.80
2009,04,15,17,16,12.80
2009,04,15,17,17,12.80
2009,04,15,17,18,12.80
2009,04,15,17,19,12.90
2009,04,15,17,20,12.90
2009,04,15,17,21,12.90
2009,04,15,17,22,12.90
2009,04,15,17,23,12.90
2009,04,15,17,24,12.90
2009,04,15,17,25,13.00
2009,04,15,17,26,13.00
2009,04,15,17,27,13.00
2009,04,15,17,28,13.00
2009,04,15,17,29,13.00
2009,04,15,17,30,13.00
2009,04,15,17,31,13.00
2009,04,15,17,32,13.00
2009,04,15,17,33,12.90
2009,04,15,17,34,12.90
2009,04,15,17,35,12.90
2009,04,15,17,36,12.90
2009,04,15,17,37,12.90
2009,04,15,17,38,13.00
2009,04,15,17,39,12.90
2009,04,15,17,40,12.90
2009,04,15,17,41,12.80
2009,04,15,17,42,12.70
2009,04,15,17,43,12.60
2009,04,15,17,44,12.60
2009,04,15,17,45,12.50
2009,04,15,17,46,12.40
2009,04,15,17,47,12.30